Location: DARK SKY Beskydy - Park tmavé oblohy, www.darkskybeskydy.cz
(49.4926°N, 18.5016°E)
Time: 00:26:33
(UTC+02:00)

A-11 Canister half - All Passes

Search period start: 25 July 2024 00:00
Search period end: 04 August 2024 00:00
Orbit: 1523 x 1684 km, 47.3° (Epoch: 24 July)

Date Brightness Start Highest point End Pass type
(mag) Time Alt. Az. Time Alt. Az. Time Alt. Az.
25 Jul - 03:46:52 10° SSW 03:55:36 35° SE 04:04:10 10° ENE visible
25 Jul - 05:49:43 10° WSW 05:59:39 68° SSE 06:09:18 10° E daylight
25 Jul - 07:54:35 10° W 08:04:32 79° S 08:14:08 10° E daylight
25 Jul - 09:59:42 10° WNW 10:09:07 54° SSW 10:18:12 10° SE daylight
25 Jul - 12:05:46 10° W 12:12:26 22° SW 12:18:59 10° S daylight
26 Jul - 03:25:16 10° SSW 03:33:53 33° SE 03:42:21 10° E visible
26 Jul - 05:27:56 10° WSW 05:37:53 67° SSE 05:47:33 10° E daylight
26 Jul - 07:32:46 10° W 07:42:45 79° S 07:52:23 10° E daylight
26 Jul - 09:37:53 10° WNW 09:47:22 56° SSW 09:56:31 10° SE daylight
26 Jul - 11:43:51 10° W 11:50:46 23° SW 11:57:34 10° S daylight
27 Jul - 03:03:40 10° SSW 03:12:10 32° SE 03:20:31 10° E visible
27 Jul - 05:06:11 10° WSW 05:16:07 65° SSE 05:25:47 10° E daylight
27 Jul - 07:10:58 10° W 07:20:59 80° S 07:30:39 10° E daylight
27 Jul - 09:16:06 10° WNW 09:25:38 57° SSW 09:34:51 10° SE daylight
27 Jul - 11:21:56 10° W 11:29:06 24° SW 11:36:08 10° S daylight
28 Jul - 02:42:04 10° SSW 02:50:27 31° SE 02:58:42 10° E visible
28 Jul - 04:44:25 10° SW 04:54:21 64° SSE 05:04:01 10° E daylight
28 Jul - 06:49:09 10° W 06:59:12 80° S 07:08:53 10° E daylight
28 Jul - 08:54:17 10° WNW 09:03:54 59° SSW 09:13:11 10° SE daylight
28 Jul - 11:00:02 10° W 11:07:26 26° SW 11:14:40 10° S daylight
29 Jul - 02:20:31 10° S 02:28:45 29° SE 02:36:52 10° E visible
29 Jul - 04:22:40 10° SW 04:32:35 63° SSE 04:42:15 10° E visible
29 Jul - 06:27:21 10° W 06:37:25 80° S 06:47:08 10° E daylight
29 Jul - 08:32:28 10° W 08:42:09 61° SSW 08:51:29 10° SE daylight
29 Jul - 10:38:09 10° W 10:45:45 27° SW 10:53:12 10° S daylight
30 Jul - 01:58:58 10° S 02:07:03 28° SE 02:15:01 10° E visible
30 Jul - 04:00:55 10° SW 04:10:49 61° SSE 04:20:29 10° E visible
30 Jul - 06:05:33 10° W 06:15:38 80° S 06:25:23 10° E daylight
30 Jul - 08:10:40 10° W 08:20:25 62° SSW 08:29:47 10° SE daylight
30 Jul - 10:16:16 10° W 10:24:05 28° SW 10:31:42 10° S daylight
31 Jul - 01:37:26 10° S 01:45:20 27° SE 01:53:10 10° E visible
31 Jul - 03:39:10 10° SW 03:49:03 60° SSE 03:58:43 10° ENE visible
31 Jul - 05:43:45 10° W 05:53:50 80° S 06:03:38 10° E daylight
31 Jul - 07:48:51 10° W 07:58:39 64° SSW 08:08:06 10° SE daylight
31 Jul - 09:54:24 10° W 10:02:24 30° SW 10:10:11 10° S daylight
01 Aug - 01:15:55 10° S 01:23:38 26° SE 01:31:17 10° E visible
01 Aug - 03:17:26 10° SW 03:27:17 58° SSE 03:36:57 10° ENE visible
01 Aug - 05:21:55 10° W 05:32:03 80° S 05:41:52 10° E daylight
01 Aug - 07:27:03 10° W 07:36:54 65° SSW 07:46:23 10° ESE daylight
01 Aug - 09:32:31 10° W 09:40:43 31° SW 09:48:40 10° SSE daylight
02 Aug - 00:54:25 10° S 01:01:56 24° SE 01:09:24 10° E visible
02 Aug - 02:55:43 10° SW 03:05:32 57° SSE 03:15:10 10° ENE visible
02 Aug - 05:00:07 10° W 05:10:15 79° S 05:20:06 10° E daylight
02 Aug - 07:05:15 10° W 07:15:08 67° SSW 07:24:41 10° ESE daylight
02 Aug - 09:10:40 10° W 09:19:01 33° SW 09:27:08 10° SSE daylight
03 Aug - 00:32:56 10° S 00:40:14 23° SE 00:47:30 10° E visible
03 Aug - 02:33:59 10° SW 02:43:46 55° SSE 02:53:23 10° ENE visible
03 Aug - 04:38:19 10° W 04:48:28 79° S 04:58:21 10° E visible
03 Aug - 06:43:27 10° W 06:53:22 68° SSW 07:02:58 10° ESE daylight
03 Aug - 08:48:49 10° WNW 08:57:19 34° SW 09:05:34 10° SSE daylight
